When you browse on this site, cookies collect data to enhance your experience and personalize the content and advertising you see.
Visit our Privacy Policy to learn more. By continuing to use the site, you agree to this use of cookies and data.
  • In Österreich
  • Länderverzeichnis
  • Für 7 Tage
  • Wassertemperatur
  • Wetterkarte
  • News
  • Widgets
  • user-avatar
    Anmelden

    Stündliche Wetter Gjirokaster

    Heute, 11 Dezember, Mittwoch

    Zeit Temperatur Niederschläge Wind Luftdruck Luftfeuchtigkeit
    00:00 +3°C° 0.3 mm 1 m/S 643 mmHg 89%
    01:00 +3°C° 0 mm 1 m/S 643 mmHg 89%
    02:00 +2°C° 0.6 mm 2 m/S 643 mmHg 90%
    03:00 +2°C° 0.6 mm 2 m/S 642 mmHg 90%
    04:00 +2°C° 0.6 mm 2 m/S 642 mmHg 91%
    05:00 +2°C° 0.2 mm 2 m/S 642 mmHg 90%
    06:00 +2°C° 0.2 mm 2 m/S 642 mmHg 89%
    07:00 +1°C° 0.2 mm 2 m/S 642 mmHg 88%
    08:00 +2°C° 0 mm 2 m/S 643 mmHg 85%
    09:00 +3°C° 0 mm 2 m/S 644 mmHg 81%
    10:00 +4°C° 0 mm 2 m/S 644 mmHg 77%
    11:00 +4°C° 0 mm 2 m/S 644 mmHg 74%
    12:00 +5°C° 0 mm 2 m/S 644 mmHg 71%
    13:00 +5°C° 0 mm 2 m/S 644 mmHg 68%
    14:00 +5°C° 0 mm 2 m/S 644 mmHg 71%
    15:00 +4°C° 0 mm 2 m/S 644 mmHg 73%
    16:00 +4°C° 0 mm 1 m/S 644 mmHg 76%
    17:00 +3°C° 0 mm 2 m/S 644 mmHg 77%
    18:00 +2°C° 0 mm 2 m/S 644 mmHg 79%
    19:00 +1°C° 0 mm 2 m/S 644 mmHg 80%
    20:00 +1°C° 0 mm 2 m/S 644 mmHg 80%
    21:00 +1°C° 0 mm 2 m/S 644 mmHg 80%
    22:00 -1°C° 0 mm 2 m/S 643 mmHg 80%
    23:00 -1°C° 0 mm 2 m/S 643 mmHg 79%

    Morgen, 12 Dezember, Donnerstag

    Zeit Temperatur Niederschläge Wind Luftdruck Luftfeuchtigkeit
    00:00 -1°C° 0 mm 2 m/S 643 mmHg 79%
    01:00 -1°C° 0 mm 2 m/S 643 mmHg 79%
    02:00 -1°C° 0 mm 2 m/S 643 mmHg 79%
    03:00 -1°C° 0 mm 2 m/S 642 mmHg 79%
    04:00 -1°C° 0 mm 2 m/S 642 mmHg 79%
    05:00 -1°C° 0 mm 2 m/S 642 mmHg 79%
    06:00 +1°C° 0 mm 1 m/S 642 mmHg 80%
    07:00 +1°C° 0 mm 1 m/S 642 mmHg 80%
    08:00 +2°C° 0 mm 1 m/S 643 mmHg 76%
    09:00 +3°C° 0 mm 1 m/S 643 mmHg 72%
    10:00 +5°C° 0 mm 1 m/S 644 mmHg 68%
    11:00 +5°C° 0.1 mm 1 m/S 644 mmHg 70%
    12:00 +5°C° 0.1 mm 1 m/S 643 mmHg 72%
    13:00 +5°C° 0.1 mm 1 m/S 643 mmHg 74%
    14:00 +3°C° 0.3 mm 2 m/S 643 mmHg 79%
    15:00 +3°C° 0.3 mm 2 m/S 643 mmHg 84%
    16:00 +2°C° 0.3 mm 2 m/S 642 mmHg 89%
    17:00 +2°C° 0.1 mm 2 m/S 642 mmHg 88%
    18:00 +2°C° 0.1 mm 2 m/S 643 mmHg 88%
    19:00 +2°C° 0.1 mm 2 m/S 643 mmHg 88%
    20:00 +2°C° 0.1 mm 2 m/S 643 mmHg 88%
    21:00 +2°C° 0.1 mm 2 m/S 642 mmHg 88%
    22:00 +2°C° 0.1 mm 2 m/S 642 mmHg 88%
    23:00 +2°C° 0.4 mm 2 m/S 642 mmHg 89%

    übermorgen, 13 Dezember, Freitag

    Zeit Temperatur Niederschläge Wind Luftdruck Luftfeuchtigkeit
    00:00 +2°C° 0.4 mm 2 m/S 642 mmHg 90%
    01:00 +1°C° 0.4 mm 3 m/S 642 mmHg 92%
    02:00 +2°C° 0.6 mm 2 m/S 641 mmHg 92%
    03:00 +2°C° 0.6 mm 2 m/S 641 mmHg 91%
    04:00 +2°C° 0.6 mm 2 m/S 641 mmHg 91%
    05:00 +1°C° 0.3 mm 2 m/S 641 mmHg 90%
    06:00 +2°C° 0.3 mm 1 m/S 641 mmHg 89%
    07:00 +2°C° 0.3 mm 1 m/S 641 mmHg 88%
    08:00 +2°C° 0.3 mm 2 m/S 641 mmHg 86%
    09:00 +3°C° 0.3 mm 2 m/S 642 mmHg 84%
    10:00 +3°C° 0.3 mm 2 m/S 642 mmHg 82%
    11:00 +4°C° 0.6 mm 2 m/S 642 mmHg 81%
    12:00 +4°C° 0.6 mm 2 m/S 641 mmHg 79%
    13:00 +4°C° 0.6 mm 2 m/S 641 mmHg 77%
    14:00 +3°C° 0.3 mm 2 m/S 640 mmHg 80%
    15:00 +3°C° 0.3 mm 2 m/S 640 mmHg 82%
    16:00 +2°C° 0.3 mm 2 m/S 639 mmHg 85%
    17:00 +2°C° 0.1 mm 2 m/S 639 mmHg 86%
    18:00 +1°C° 0.1 mm 3 m/S 639 mmHg 88%
    19:00 0°C° 0.1 mm 4 m/S 638 mmHg 89%
    20:00 0°C° 0.4 mm 4 m/S 638 mmHg 90%
    21:00 0°C° 0.4 mm 5 m/S 638 mmHg 90%
    22:00 -1°C° 0.4 mm 6 m/S 637 mmHg 91%
    23:00 +1°C° 3.2 mm 6 m/S 637 mmHg 92%

    14 Dezember, Samstag

    Zeit Temperatur Niederschläge Wind Luftdruck Luftfeuchtigkeit
    00:00 +1°C° 3.2 mm 6 m/S 636 mmHg 94%
    01:00 +1°C° 3.2 mm 6 m/S 635 mmHg 95%
    02:00 +1°C° 4.8 mm 5 m/S 634 mmHg 95%
    03:00 +1°C° 4.8 mm 5 m/S 634 mmHg 94%
    04:00 0°C° 4.8 mm 4 m/S 633 mmHg 93%
    05:00 0°C° 3.8 mm 4 m/S 633 mmHg 93%
    06:00 0°C° 3.8 mm 3 m/S 633 mmHg 94%
    07:00 +1°C° 3.8 mm 2 m/S 633 mmHg 94%
    08:00 0°C° 2 mm 3 m/S 634 mmHg 92%
    09:00 +1°C° 2 mm 3 m/S 635 mmHg 91%
    10:00 +1°C° 2 mm 3 m/S 636 mmHg 89%
    11:00 +3°C° 0 mm 2 m/S 637 mmHg 84%
    12:00 +4°C° 0 mm 2 m/S 638 mmHg 79%
    13:00 +5°C° 0 mm 2 m/S 638 mmHg 73%
    14:00 +5°C° 0 mm 2 m/S 639 mmHg 76%
    15:00 +4°C° 0 mm 2 m/S 640 mmHg 78%
    16:00 +4°C° 0 mm 2 m/S 641 mmHg 81%
    17:00 +4°C° 0 mm 2 m/S 642 mmHg 81%
    18:00 +3°C° 0 mm 2 m/S 643 mmHg 82%
    19:00 +3°C° 0 mm 2 m/S 644 mmHg 83%
    20:00 +3°C° 0 mm 2 m/S 645 mmHg 82%
    21:00 +3°C° 0 mm 2 m/S 645 mmHg 82%
    22:00 +3°C° 0 mm 2 m/S 646 mmHg 82%
    23:00 +3°C° 0 mm 2 m/S 647 mmHg 81%

    15 Dezember, Sonntag

    Zeit Temperatur Niederschläge Wind Luftdruck Luftfeuchtigkeit
    00:00 +3°C° 0 mm 2 m/S 647 mmHg 81%
    01:00 +3°C° 0 mm 2 m/S 648 mmHg 81%
    02:00 +3°C° 0 mm 2 m/S 648 mmHg 81%
    03:00 +4°C° 0 mm 1 m/S 648 mmHg 81%
    04:00 +4°C° 0 mm 1 m/S 649 mmHg 80%
    05:00 +4°C° 0 mm 1 m/S 649 mmHg 80%
    06:00 +3°C° 0 mm 2 m/S 650 mmHg 80%
    07:00 +3°C° 0 mm 2 m/S 650 mmHg 80%
    08:00 +4°C° 0 mm 2 m/S 651 mmHg 77%
    09:00 +6°C° 0 mm 2 m/S 652 mmHg 73%
    10:00 +7°C° 0 mm 2 m/S 653 mmHg 70%
    11:00 +8°C° 0 mm 2 m/S 653 mmHg 69%
    12:00 +8°C° 0 mm 2 m/S 653 mmHg 68%
    13:00 +9°C° 0 mm 2 m/S 654 mmHg 67%
    14:00 +8°C° 0 mm 2 m/S 654 mmHg 72%
    15:00 +8°C° 0 mm 1 m/S 654 mmHg 77%
    16:00 +7°C° 0 mm 1 m/S 653 mmHg 82%
    17:00 +5°C° 0 mm 2 m/S 654 mmHg 83%
    18:00 +5°C° 0 mm 2 m/S 654 mmHg 84%
    19:00 +5°C° 0 mm 2 m/S 654 mmHg 85%
    20:00 +4°C° 0 mm 2 m/S 654 mmHg 85%
    21:00 +4°C° 0 mm 2 m/S 654 mmHg 85%
    22:00 +4°C° 0 mm 2 m/S 655 mmHg 86%
    23:00 +4°C° 0 mm 2 m/S 655 mmHg 86%

    16 Dezember, Montag

    Zeit Temperatur Niederschläge Wind Luftdruck Luftfeuchtigkeit
    00:00 +4°C° 0 mm 2 m/S 655 mmHg 86%
    01:00 +3°C° 0 mm 2 m/S 655 mmHg 86%
    02:00 +3°C° 0 mm 2 m/S 655 mmHg 87%
    03:00 +3°C° 0 mm 2 m/S 655 mmHg 88%
    04:00 +3°C° 0 mm 2 m/S 655 mmHg 89%
    05:00 +3°C° 0 mm 2 m/S 655 mmHg 89%
    06:00 +3°C° 0 mm 2 m/S 655 mmHg 88%
    07:00 +3°C° 0 mm 2 m/S 655 mmHg 88%
    08:00 +4°C° 0 mm 2 m/S 656 mmHg 85%
    09:00 +5°C° 0 mm 2 m/S 656 mmHg 81%
    10:00 +7°C° 0 mm 2 m/S 657 mmHg 77%
    11:00 +7°C° 0 mm 2 m/S 657 mmHg 75%
    12:00 +8°C° 0 mm 2 m/S 657 mmHg 73%
    13:00 +8°C° 0 mm 2 m/S 656 mmHg 71%
    14:00 +7°C° 0 mm 2 m/S 656 mmHg 76%
    15:00 +7°C° 0 mm 2 m/S 656 mmHg 82%
    16:00 +6°C° 0 mm 2 m/S 655 mmHg 87%
    17:00 +5°C° 0 mm 2 m/S 655 mmHg 88%
    18:00 +4°C° 0 mm 2 m/S 655 mmHg 90%
    19:00 +4°C° 0 mm 2 m/S 655 mmHg 92%
    20:00 +4°C° 0 mm 2 m/S 655 mmHg 92%
    21:00 +4°C° 0 mm 2 m/S 655 mmHg 92%
    22:00 +3°C° 0 mm 2 m/S 655 mmHg 91%
    23:00 +3°C° 0 mm 2 m/S 655 mmHg 91%
    Mehr zeigen